When you browse on this site, cookies collect data to enhance your experience and personalize the content and advertising you see.
Visit our Privacy Policy to learn more. By continuing to use the site, you agree to this use of cookies and data.
  • In Hungary
  • List of Countries
  • For 7 days
  • Water Temperature
  • Satellite Maps
  • Weather Map
  • News
  • Weather Widgets
  • user-avatar
    Login

    Hourly Weather Charkhari

    Today, 18 January, Friday

    Time Temperature Precipitation Wind Pressure Humidity
    00:00 +13°C° 0 mm 1 mps 746 mmHg 51%
    01:00 +13°C° 0 mm 1 mps 746 mmHg 53%
    02:00 +12°C° 0 mm 1 mps 745 mmHg 55%
    03:00 +12°C° 0 mm 1 mps 746 mmHg 57%
    04:00 +11°C° 0 mm 1 mps 746 mmHg 59%
    05:00 +10°C° 0 mm 2 mps 746 mmHg 59%
    06:00 +12°C° 0 mm 2 mps 746 mmHg 57%
    07:00 +13°C° 0 mm 2 mps 746 mmHg 55%
    08:00 +14°C° 0 mm 2 mps 747 mmHg 53%
    09:00 +17°C° 0 mm 2 mps 747 mmHg 45%
    10:00 +19°C° 0 mm 2 mps 747 mmHg 38%
    11:00 +23°C° 0 mm 2 mps 747 mmHg 30%
    12:00 +24°C° 0 mm 2 mps 746 mmHg 27%
    13:00 +25°C° 0 mm 2 mps 745 mmHg 24%
    14:00 +26°C° 0 mm 2 mps 745 mmHg 22%
    15:00 +25°C° 0 mm 2 mps 745 mmHg 25%
    16:00 +23°C° 0 mm 2 mps 745 mmHg 28%
    17:00 +21°C° 0 mm 2 mps 745 mmHg 32%
    18:00 +19°C° 0 mm 2 mps 745 mmHg 38%
    19:00 +18°C° 0 mm 2 mps 745 mmHg 45%
    20:00 +16°C° 0 mm 2 mps 746 mmHg 51%
    21:00 +15°C° 0 mm 2 mps 746 mmHg 54%
    22:00 +15°C° 0 mm 1 mps 746 mmHg 57%
    23:00 +14°C° 0 mm 1 mps 746 mmHg 60%

    Tomorrow, 19 January, Saturday

    Time Temperature Precipitation Wind Pressure Humidity
    00:00 +14°C° 0 mm 1 mps 746 mmHg 62%
    01:00 +12°C° 0 mm 0 mps 746 mmHg 63%
    02:00 +12°C° 0 mm 0 mps 746 mmHg 64%
    03:00 +11°C° 0 mm 0 mps 746 mmHg 65%
    04:00 +11°C° 0 mm 0 mps 746 mmHg 66%
    05:00 +12°C° 0 mm 1 mps 745 mmHg 66%
    06:00 +13°C° 0 mm 1 mps 746 mmHg 61%
    07:00 +14°C° 0 mm 1 mps 747 mmHg 57%
    08:00 +16°C° 0 mm 1 mps 747 mmHg 52%
    09:00 +19°C° 0 mm 1 mps 747 mmHg 44%
    10:00 +22°C° 0 mm 1 mps 747 mmHg 36%
    11:00 +23°C° 0 mm 0 mps 747 mmHg 28%
    12:00 +26°C° 0 mm 1 mps 747 mmHg 24%
    13:00 +27°C° 0 mm 1 mps 746 mmHg 21%
    14:00 +28°C° 0 mm 2 mps 745 mmHg 17%
    15:00 +26°C° 0 mm 2 mps 745 mmHg 20%
    16:00 +25°C° 0 mm 2 mps 745 mmHg 23%
    17:00 +23°C° 0 mm 2 mps 745 mmHg 26%
    18:00 +21°C° 0 mm 2 mps 745 mmHg 30%
    19:00 +19°C° 0 mm 2 mps 746 mmHg 35%
    20:00 +18°C° 0 mm 2 mps 746 mmHg 40%
    21:00 +17°C° 0 mm 2 mps 746 mmHg 42%
    22:00 +16°C° 0 mm 1 mps 746 mmHg 45%
    23:00 +15°C° 0 mm 1 mps 746 mmHg 48%

    Day after tomorrow, 20 January, Sunday

    Time Temperature Precipitation Wind Pressure Humidity
    00:00 +14°C° 0 mm 0 mps 746 mmHg 49%
    01:00 +14°C° 0 mm 0 mps 746 mmHg 50%
    02:00 +13°C° 0 mm 0 mps 746 mmHg 51%
    03:00 +13°C° 0 mm 0 mps 746 mmHg 52%
    04:00 +12°C° 0 mm 0 mps 746 mmHg 53%
    05:00 +12°C° 0 mm 0 mps 746 mmHg 54%
    06:00 +13°C° 0 mm 0 mps 746 mmHg 50%
    07:00 +15°C° 0 mm 0 mps 747 mmHg 47%
    08:00 +18°C° 0 mm 1 mps 748 mmHg 43%
    09:00 +21°C° 0 mm 1 mps 748 mmHg 36%
    10:00 +22°C° 0 mm 0 mps 748 mmHg 30%
    11:00 +25°C° 0 mm 0 mps 748 mmHg 23%
    12:00 +28°C° 0 mm 1 mps 747 mmHg 21%
    13:00 +29°C° 0 mm 1 mps 746 mmHg 19%
    14:00 +30°C° 0 mm 2 mps 745 mmHg 17%
    15:00 +28°C° 0 mm 2 mps 745 mmHg 20%
    16:00 +27°C° 0 mm 2 mps 745 mmHg 22%
    17:00 +25°C° 0 mm 2 mps 744 mmHg 25%
    18:00 +24°C° 0 mm 2 mps 745 mmHg 29%
    19:00 +21°C° 0 mm 2 mps 745 mmHg 33%
    20:00 +19°C° 0 mm 2 mps 746 mmHg 37%
    21:00 +19°C° 0 mm 2 mps 745 mmHg 39%
    22:00 +18°C° 0 mm 2 mps 745 mmHg 41%
    23:00 +17°C° 0 mm 2 mps 745 mmHg 42%

    21 January, Monday

    Time Temperature Precipitation Wind Pressure Humidity
    00:00 +17°C° 0 mm 2 mps 745 mmHg 42%
    01:00 +17°C° 0 mm 2 mps 745 mmHg 42%
    02:00 +16°C° 0 mm 2 mps 744 mmHg 42%
    03:00 +16°C° 0 mm 2 mps 744 mmHg 42%
    04:00 +16°C° 0 mm 2 mps 744 mmHg 42%
    05:00 +15°C° 0 mm 2 mps 744 mmHg 43%
    06:00 +16°C° 0 mm 2 mps 745 mmHg 41%
    07:00 +17°C° 0 mm 2 mps 745 mmHg 39%
    08:00 +18°C° 0 mm 3 mps 746 mmHg 37%
    09:00 +22°C° 0 mm 3 mps 746 mmHg 30%
    10:00 +26°C° 0 mm 3 mps 745 mmHg 24%
    11:00 +30°C° 0 mm 4 mps 745 mmHg 18%
    12:00 +32°C° 0 mm 4 mps 744 mmHg 16%
    13:00 +33°C° 0 mm 3 mps 743 mmHg 15%
    14:00 +35°C° 0 mm 3 mps 743 mmHg 13%
    15:00 +33°C° 0.1 mm 3 mps 742 mmHg 17%
    16:00 +30°C° 0.1 mm 2 mps 742 mmHg 20%
    17:00 +28°C° 0.1 mm 2 mps 742 mmHg 24%
    18:00 +26°C° 0.1 mm 2 mps 742 mmHg 31%
    19:00 +24°C° 0.1 mm 3 mps 743 mmHg 38%
    20:00 +21°C° 0.1 mm 3 mps 743 mmHg 45%
    21:00 +20°C° 0.1 mm 3 mps 743 mmHg 47%
    22:00 +20°C° 0.1 mm 3 mps 743 mmHg 49%
    23:00 +19°C° 0.1 mm 3 mps 743 mmHg 52%

    22 January, Tuesday

    Time Temperature Precipitation Wind Pressure Humidity
    00:00 +18°C° 0.1 mm 3 mps 742 mmHg 57%
    01:00 +17°C° 0.1 mm 3 mps 742 mmHg 63%
    02:00 +16°C° 0.1 mm 3 mps 742 mmHg 68%
    03:00 +16°C° 0.1 mm 3 mps 742 mmHg 70%
    04:00 +16°C° 0.1 mm 3 mps 742 mmHg 72%
    05:00 +14°C° 0.1 mm 3 mps 742 mmHg 74%
    06:00 +16°C° 0 mm 3 mps 743 mmHg 72%
    07:00 +17°C° 0 mm 3 mps 744 mmHg 69%
    08:00 +17°C° 0 mm 3 mps 745 mmHg 66%
    09:00 +20°C° 0.2 mm 2 mps 745 mmHg 58%
    10:00 +23°C° 0.2 mm 2 mps 745 mmHg 50%
    11:00 +26°C° 0.2 mm 2 mps 745 mmHg 42%
    12:00 +27°C° 0 mm 2 mps 744 mmHg 37%
    13:00 +29°C° 0 mm 2 mps 743 mmHg 32%
    14:00 +30°C° 0 mm 2 mps 742 mmHg 27%
    15:00 +29°C° 0 mm 2 mps 742 mmHg 29%
    16:00 +28°C° 0 mm 2 mps 742 mmHg 31%
    17:00 +26°C° 0 mm 2 mps 742 mmHg 33%
    18:00 +25°C° 0 mm 2 mps 743 mmHg 38%
    19:00 +23°C° 0 mm 2 mps 744 mmHg 44%
    20:00 +20°C° 0 mm 3 mps 744 mmHg 50%
    21:00 +20°C° 0 mm 2 mps 744 mmHg 55%
    22:00 +19°C° 0 mm 2 mps 745 mmHg 60%
    23:00 +18°C° 0 mm 2 mps 745 mmHg 66%

    23 January, Wednesday

    Time Temperature Precipitation Wind Pressure Humidity
    00:00 +18°C° 0 mm 2 mps 745 mmHg 68%
    01:00 +17°C° 0 mm 2 mps 745 mmHg 70%
    02:00 +17°C° 0 mm 3 mps 745 mmHg 73%
    03:00 +16°C° 0 mm 2 mps 745 mmHg 76%
    04:00 +16°C° 0 mm 2 mps 745 mmHg 80%
    05:00 +15°C° 0 mm 2 mps 745 mmHg 83%
    06:00 +16°C° 0 mm 2 mps 746 mmHg 78%
    07:00 +17°C° 0 mm 3 mps 746 mmHg 73%
    08:00 +18°C° 0 mm 3 mps 747 mmHg 68%
    09:00 +21°C° 0 mm 3 mps 747 mmHg 57%
    10:00 +25°C° 0 mm 3 mps 747 mmHg 46%
    11:00 +27°C° 0 mm 4 mps 747 mmHg 36%
    12:00 +28°C° 0 mm 3 mps 746 mmHg 32%
    13:00 +29°C° 0 mm 2 mps 745 mmHg 29%
    14:00 +30°C° 0 mm 2 mps 744 mmHg 26%
    15:00 +29°C° 0 mm 2 mps 744 mmHg 28%
    16:00 +28°C° 0 mm 2 mps 744 mmHg 30%
    17:00 +27°C° 0 mm 3 mps 744 mmHg 32%
    18:00 +25°C° 0 mm 3 mps 744 mmHg 39%
    19:00 +22°C° 0 mm 3 mps 745 mmHg 47%
    20:00 +21°C° 0 mm 3 mps 745 mmHg 54%
    21:00 +20°C° 0 mm 3 mps 745 mmHg 56%
    22:00 +19°C° 0 mm 3 mps 746 mmHg 59%
    23:00 +18°C° 0 mm 2 mps 746 mmHg 61%
    Show more